Temp
7 4 5 6 7 7 7 7 6 6 7 7 7 6 7 8 8 8 6 5 5 6 5 5 5 5 5 5 5 4 3 4 5 7 7 7 8 8 8 8 8 8 8 9
5 6 7 8 7 7 7 6 5 5 6 7 5 5 5 6 5 6 5 5 6 5 5 4 4 4 4 4 4 3 3 3 4 6 6 7 7 8 7 8 8 8 8 8
6 7 7 7 6 6 6 6 5 5 4 5 4 4 3 4 5 5 5 5 4 5 4 4 4 4 3 4 3 3 3 4 4 5 6 6 6 7 7 7 7 7 6 7
6 6 6 6 6 6 6 6 6 5 4 3 4 1 3 4 4 5 5 4 3 3 3 3 4 4 3 3 3 3 3 4 5 5 5 5 6 6 6 6 6 6 6 6
6 6 6 5 6 7 6 6 5 5 4 3 3 1 3 4 7 6 5 3 3 3 3 3 3 3 3 3 3 3 3 3 4 4 4 4 4 4 5 5 5 5 6 5
5 6 6 6 6 6 6 5 2 2 2 -3 3 3 3 4 5 3 5 4 3 3 3 3 3 3 3 3 3 3 3 3 3 3 3 3 3 3 3 4 4 4 3 4
5 5 5 6 5 5 4 2 -4 -2 -3 -1 3 3 3 4 4 4 4 5 3 3 3 3 3 3 2 2 2 3 3 3 3 3 3 3 3 3 3 2 2 2 3 3
3 3 5 5 5 5 4 2 -3 -2 -2 -0 3 1 4 4 5 5 4 3 3 3 2 2 2 2 2 2 2 2 2 2 2 2 2 2 2 2 2 2 1 1 2 3
3 5 4 4 4 4 4 1 3 -4 -7 -4 1 2 4 4 2 3 3 4 3 3 3 2 2 2 2 1 1 1 1 1 2 2 2 2 2 2 2 2 1 2 2 3
3 2 4 4 4 3 4 3 0 -5 -4 -4 -1 2 2 4 1 0 1 2 2 2 2 2 1 2 2 1 1 1 1 1 1 1 1 1 1 1 1 1 2 2 2 2
2 2 3 4 3 2 -0 -1 -1 -0 -1 -4 -4 0 1 2 -0 -1 -0 1 1 1 2 1 1 1 1 1 0 0 1 1 0 -0 1 1 1 0 0 1 1 1 1 1
2 0 -2 2 1 2 2 2 0 -4 -2 -2 -3 1 2 -1 -1 -0 -1 -0 1 1 1 1 0 -0 -0 -0 -2 -3 -1 -1 -1 -0 0 -0 -0 -0 -0 -0 -0 -0 -0 0
0 -3 -7 -2 -0 1 2 1 0 -7 -7 -4 -6 -1 1 1 -0 -1 -1 -0 -0 -0 -0 0 -0 -0 -1 -1 -2 -1 -1 -1 -1 -2 -2 -1 -1 -1 -1 -1 -1 -1 -1 -1
1 -6 -4 -1 1 -1 1 1 0 -6 -10 -5 -3 -3 -1 -2 -4 -2 -1 -1 -1 -2 -1 -1 -2 -2 -2 -2 -2 -2 -2 -3 -2 -2 -2 -2 -2 -2 -2 -1 -1 -1 -1 -1
-2 -4 -7 -7 -3 -2 -1 -1 -1 -6 -8 -5 -1 -8 -4 -8 -6 -3 -4 -2 -2 -2 -3 -3 -3 -3 -3 -3 -3 -3 -3 -3 -3 -2 -2 -2 -2 -2 -2 -2 -2 -2 -2 -2
-6 -5 -6 -8 -4 -4 -4 -3 -3 -3 -6 -6 -5 -4 -3 -4 -5 -5 -5 -4 -5 -5 -5 -4 -5 -5 -5 -5 -5 -4 -4 -4 -4 -3 -3 -3 -3 -3 -2 -2 -2 -2 -2 -2
-6 -7 -10 -8 -6 -7 -5 -5 -2 -5 -8 -8 -8 -7 -6 -8 -8 -8 -7 -7 -7 -7 -6 -6 -6 -6 -6 -6 -6 -6 -5 -5 -5 -5 -4 -4 -3 -3 -3 -3 -3 -3 -3 -2
-8 -9 -12 -11 -11 -7 -1 -2 -2 -3 -3 -7 -8 -9 -6 -7 -7 -8 -8 -8 -8 -8 -8 -8 -7 -7 -7 -6 -6 -7 -7 -6 -6 -6 -5 -5 -4 -4 -4 -4 -4 -3 -3 -3
-7 -9 -12 -8 -16 -5 -3 -3 -3 -5 -4 -6 -6 -7 -7 -7 -6 -7 -8 -10 -10 -10 -10 -10 -10 -9 -8 -8 -7 -6 -7 -7 -6 -6 -6 -6 -5 -5 -5 -5 -4 -4 -3 -3
-8 -11 -9 -17 -11 -8 -3 -3 -2 -3 -7 -7 -7 -8 -9 -9 -8 -9 -8 -9 -9 -10 -11 -11 -11 -11 -11 -10 -10 -9 -9 -8 -8 -7 -7 -7 -7 -6 -6 -5 -5 -5 -5 -4
-13 -15 -11 -16 -13 -9 -5 -3 -3 -7 -5 -7 -8 -9 -10 -10 -10 -11 -11 -11 -12 -13 -13 -13 -13 -13 -13 -13 -13 -12 -11 -11 -10 -10 -9 -8 -8 -7 -7 -6 -6 -6 -5 -5
-9 -11 -13 -17 -14 -7 -4 -6 -5 -6 -7 -8 -9 -10 -11 -11 -12 -13 -13 -14 -15 -15 -15 -15 -15 -15 -15 -15 -15 -14 -13 -13 -12 -11 -10 -9 -9 -8 -8 -8 -7 -7 -6 -6
-4 -9 -8 -8 -6 -5 -4 -5 -5 -6 -7 -9 -10 -11 -11 -12 -13 -14 -14 -15 -15 -16 -16 -16 -16 -16 -16 -17 -17 -16 -15 -14 -13 -12 -12 -11 -10 -10 -10 -9 -9 -8 -8 -7
-9 -7 -8 -7 -8 -6 -5 -5 -6 -7 -8 -9 -10 -11 -12 -13 -14 -15 -15 -16 -16 -16 -16 -16 -17 -16 -17 -18 -18 -18 -17 -16 -15 -13 -13 -12 -11 -11 -10 -10 -10 -10 -9 -9
-6 -7 -9 -8 -9 -9 -8 -7 -7 -9 -10 -10 -12 -12 -13 -14 -15 -16 -16 -16 -16 -16 -17 -17 -17 -17 -17 -17 -17 -17 -17 -17 -16 -15 -14 -14 -14 -13 -12 -12 -11 -11 -10 -10
-6 -6 -5 -5 -4 -5 -6 -6 -9 -10 -10 -11 -11 -12 -14 -15 -15 -15 -16 -16 -17 -16 -16 -16 -16 -16 -16 -16 -16 -17 -17 -17 -17 -17 -17 -17 -16 -16 -15 -14 -13 -13 -12 -11
Height
1554 1561 1568 1565 1562 1564 1564 1565 1566 1565 1561 1560 1559 1559 1547 1545 1544 1541 1542 1544 1543 1542 1541 1540 1536 1532 1527 1522 1518 1515 1512 1509 1507 1505 1504 1504 1502 1501 1500 1500 1500 1500 1500 1500
1560 1565 1564 1563 1562 1563 1566 1569 1571 1565 1561 1560 1561 1557 1550 1547 1546 1542 1542 1543 1543 1542 1542 1540 1537 1533 1528 1523 1519 1516 1513 1511 1508 1506 1504 1504 1502 1500 1498 1498 1498 1497 1497 1497
1564 1566 1564 1564 1565 1566 1569 1570 1572 1573 1567 1560 1561 1560 1556 1552 1551 1548 1546 1545 1545 1545 1542 1541 1538 1534 1530 1526 1522 1518 1515 1512 1509 1506 1505 1503 1502 1500 1499 1498 1497 1496 1493 1494
1563 1565 1566 1567 1567 1568 1570 1571 1571 1571 1573 1579 1567 1588 1563 1555 1552 1549 1548 1548 1548 1548 1545 1543 1540 1537 1533 1529 1526 1522 1518 1514 1511 1507 1505 1503 1501 1499 1499 1497 1496 1494 1494 1493
1566 1565 1567 1570 1569 1567 1570 1568 1570 1569 1574 1575 1575 1589 1566 1557 1551 1550 1550 1550 1550 1548 1546 1544 1542 1539 1536 1533 1530 1526 1522 1517 1513 1509 1506 1504 1502 1500 1498 1496 1495 1495 1494 1493
1564 1565 1565 1568 1570 1568 1568 1568 1573 1577 1580 1612 1575 1579 1573 1561 1555 1555 1552 1551 1550 1549 1546 1544 1543 1541 1539 1536 1533 1531 1527 1522 1518 1514 1510 1507 1504 1502 1500 1497 1496 1495 1494 1493
1565 1568 1566 1566 1571 1570 1570 1579 1617 1609 1614 1606 1574 1577 1566 1558 1558 1556 1552 1549 1549 1549 1547 1545 1543 1542 1540 1537 1535 1532 1529 1526 1522 1518 1515 1511 1508 1507 1504 1501 1499 1497 1494 1494
1571 1579 1568 1568 1571 1573 1574 1581 1615 1623 1616 1595 1575 1587 1564 1561 1559 1557 1556 1553 1552 1550 1548 1546 1543 1542 1540 1539 1537 1535 1531 1528 1525 1522 1519 1516 1513 1509 1507 1504 1503 1499 1497 1494
1571 1566 1568 1569 1571 1573 1577 1588 1581 1609 1625 1614 1582 1572 1559 1559 1561 1560 1558 1556 1554 1550 1547 1544 1541 1540 1540 1538 1537 1535 1533 1530 1527 1525 1522 1520 1516 1513 1510 1508 1506 1503 1499 1497
1564 1574 1567 1570 1571 1574 1573 1577 1595 1612 1626 1630 1589 1575 1569 1560 1565 1560 1560 1559 1556 1553 1549 1545 1544 1541 1538 1538 1536 1535 1533 1531 1529 1526 1524 1521 1518 1515 1513 1510 1507 1505 1501 1499
1561 1565 1572 1571 1572 1576 1583 1587 1588 1591 1600 1621 1619 1574 1562 1563 1564 1563 1560 1557 1555 1551 1547 1544 1544 1543 1539 1537 1536 1534 1532 1531 1530 1528 1526 1523 1520 1516 1513 1512 1509 1506 1504 1502
1561 1570 1586 1575 1574 1572 1571 1574 1581 1605 1603 1597 1599 1567 1554 1561 1563 1561 1560 1556 1553 1550 1546 1543 1542 1541 1541 1537 1536 1534 1531 1530 1529 1526 1525 1523 1520 1518 1514 1511 1508 1507 1504 1502
1558 1579 1610 1589 1583 1575 1572 1572 1576 1595 1602 1598 1617 1576 1556 1556 1559 1560 1558 1554 1551 1548 1543 1540 1538 1538 1536 1534 1534 1533 1531 1529 1527 1525 1522 1521 1519 1516 1514 1511 1508 1506 1503 1501
1553 1574 1579 1579 1567 1572 1571 1570 1573 1591 1619 1593 1580 1572 1559 1561 1561 1557 1554 1552 1550 1547 1541 1537 1537 1537 1537 1535 1534 1532 1531 1530 1523 1522 1520 1517 1515 1514 1512 1510 1508 1506 1504 1501
1554 1573 1581 1580 1573 1572 1572 1570 1571 1584 1588 1587 1559 1582 1565 1565 1560 1558 1554 1549 1548 1546 1543 1541 1541 1540 1539 1536 1534 1531 1530 1528 1522 1520 1516 1514 1512 1511 1508 1507 1506 1505 1503 1501
1558 1576 1578 1588 1574 1575 1576 1569 1567 1567 1575 1576 1571 1565 1561 1560 1559 1555 1553 1549 1548 1546 1543 1541 1540 1538 1537 1534 1531 1528 1527 1524 1521 1519 1516 1514 1512 1508 1506 1504 1503 1502 1502 1501
1562 1573 1589 1596 1581 1583 1579 1560 1556 1564 1566 1564 1574 1561 1559 1556 1556 1554 1551 1550 1549 1548 1544 1541 1539 1538 1535 1533 1530 1527 1524 1522 1519 1516 1513 1511 1509 1507 1504 1502 1500 1499 1499 1498
1563 1572 1587 1599 1597 1598 1549 1547 1548 1554 1553 1554 1556 1556 1557 1554 1554 1552 1551 1549 1547 1545 1542 1539 1537 1535 1533 1530 1528 1526 1523 1519 1516 1514 1511 1508 1506 1504 1503 1501 1499 1497 1495 1495
1555 1565 1594 1590 1625 1566 1547 1546 1550 1556 1552 1550 1551 1553 1553 1552 1551 1549 1547 1546 1544 1543 1540 1536 1533 1531 1529 1526 1524 1521 1519 1516 1514 1511 1508 1505 1502 1501 1499 1498 1496 1494 1492 1491
1558 1561 1571 1613 1604 1590 1545 1543 1544 1550 1558 1547 1549 1550 1549 1549 1549 1546 1544 1542 1540 1539 1535 1532 1528 1526 1523 1521 1518 1515 1512 1510 1509 1507 1504 1501 1499 1497 1495 1494 1492 1491 1489 1487
1577 1582 1582 1605 1604 1570 1544 1544 1546 1568 1547 1542 1544 1545 1544 1545 1545 1542 1541 1539 1537 1534 1530 1526 1523 1520 1517 1514 1511 1509 1507 1504 1502 1501 1498 1496 1494 1492 1490 1489 1488 1486 1484 1483
1552 1570 1583 1600 1602 1567 1534 1542 1549 1539 1537 1540 1541 1541 1538 1539 1538 1536 1535 1532 1529 1527 1524 1520 1516 1513 1511 1508 1504 1502 1501 1498 1495 1494 1492 1490 1487 1486 1484 1482 1482 1481 1479 1478
1529 1528 1538 1540 1533 1522 1525 1528 1531 1533 1533 1535 1535 1535 1533 1534 1533 1531 1529 1526 1524 1521 1518 1514 1510 1506 1503 1500 1497 1494 1492 1490 1488 1486 1484 1482 1480 1479 1477 1475 1474 1473 1473 1472
1518 1515 1521 1525 1518 1519 1522 1524 1527 1529 1530 1529 1531 1529 1528 1530 1528 1526 1525 1522 1519 1517 1513 1510 1506 1502 1498 1494 1491 1488 1485 1482 1480 1477 1475 1473 1471 1470 1469 1468 1467 1466 1465 1465
1504 1508 1513 1516 1515 1516 1518 1518 1521 1525 1525 1525 1525 1524 1524 1524 1523 1522 1521 1519 1516 1514 1510 1507 1503 1499 1495 1491 1488 1484 1480 1476 1472 1469 1467 1464 1462 1461 1459 1458 1457 1457 1458 1457
1491 1493 1500 1498 1492 1497 1503 1508 1514 1519 1519 1520 1519 1517 1519 1519 1518 1518 1517 1515 1513 1510 1507 1504 1501 1496 1492 1488 1484 1480 1476 1471 1467 1462 1459 1456 1453 1451 1449 1447 1445 1447 1447 1448
Wind_Speed
4 6 2 1 2 2 2 1 2 4 5 5 1 7 17 22 13 15 7 7 4 8 12 16 18 19 19 19 19 18 19 16 11 8 8 9 8 8 9 13 15 15 16 16
5 3 2 1 3 3 2 2 4 5 5 3 6 10 6 7 5 5 11 7 1 6 11 14 15 17 18 19 17 16 15 15 12 9 6 5 7 9 4 6 11 14 15 18
4 1 3 2 3 4 4 2 3 4 7 2 6 6 7 5 8 7 4 1 2 7 10 12 14 16 17 18 19 17 14 14 12 10 11 9 8 9 9 6 7 9 7 11
4 3 2 3 3 2 2 2 2 4 5 2 5 4 6 6 4 4 3 1 3 8 9 9 11 13 16 19 18 17 14 11 11 10 8 7 8 8 7 7 6 6 7 8
2 3 4 5 1 2 3 2 3 1 1 3 5 3 7 4 3 5 10 3 2 5 7 8 8 10 13 15 18 19 20 17 13 12 10 8 6 5 3 3 4 5 6 7
3 2 3 3 1 3 3 3 6 4 2 3 3 3 5 3 4 5 8 5 4 3 5 5 4 6 9 12 14 16 18 20 21 20 16 13 13 10 6 3 2 4 3 2
3 2 1 2 2 5 6 6 4 6 4 4 3 2 7 5 4 5 11 10 8 4 6 5 4 4 6 9 12 14 17 19 20 21 21 21 18 13 13 15 11 5 4 4
4 4 1 2 2 3 3 4 5 5 3 4 4 4 2 3 7 11 15 7 3 7 8 8 8 6 6 8 11 13 15 17 19 21 22 21 21 20 19 15 12 13 10 7
4 1 1 3 2 3 1 2 3 4 1 3 2 5 7 1 11 15 15 15 12 13 14 13 10 9 8 8 9 10 11 14 17 20 21 21 21 20 20 19 16 11 8 7
5 4 2 0 2 4 2 4 3 3 2 5 4 3 5 5 5 9 18 23 27 26 23 16 14 12 9 8 8 8 10 14 17 18 19 18 19 19 20 19 18 17 16 12
3 3 1 0 2 6 2 1 4 3 4 4 3 4 6 4 7 7 17 30 32 33 28 19 16 13 9 6 7 8 14 17 18 19 17 15 16 17 17 17 18 18 16 14
1 4 3 3 3 2 3 5 5 4 5 4 3 11 7 9 7 19 23 27 26 27 27 19 16 10 10 17 18 16 16 16 13 10 11 12 12 13 14 16 17 17 17 16
6 1 3 7 5 3 3 3 4 5 3 6 4 7 2 21 24 25 25 27 26 26 27 23 18 16 15 6 4 6 8 9 11 13 13 13 12 12 13 14 15 16 17 17
5 3 7 6 4 4 4 4 4 6 3 4 10 13 13 11 12 25 29 26 22 24 22 19 9 4 2 3 4 10 13 13 13 14 15 17 17 15 14 14 14 15 15 15
4 5 2 2 3 3 5 6 9 8 6 6 17 5 10 6 12 20 19 17 16 19 15 11 6 7 7 7 8 10 11 12 12 14 16 18 19 19 16 14 14 13 13 14
3 3 3 4 3 3 4 8 9 10 4 8 10 14 4 5 8 17 18 16 16 15 10 8 7 6 8 8 8 8 8 10 11 14 16 17 18 18 18 17 15 14 12 11
5 6 3 4 4 5 8 8 12 4 4 7 4 7 1 4 9 15 17 17 16 16 16 13 12 14 15 15 14 13 13 12 12 12 14 16 18 19 19 17 16 15 14 12
5 5 3 3 3 2 4 1 4 7 6 7 2 3 3 4 3 8 9 11 12 14 16 17 17 18 18 18 18 18 18 17 16 16 15 15 16 17 18 18 17 17 16 16
3 4 2 3 3 7 4 4 4 6 7 5 5 5 3 8 8 11 9 13 16 18 19 21 21 21 19 20 20 22 21 21 21 19 17 17 18 18 19 20 18 17 16 17
5 6 4 3 5 7 4 1 5 7 5 10 7 5 3 8 5 5 13 21 23 24 24 24 23 22 22 22 21 20 20 21 22 23 22 20 20 20 21 21 21 20 19 17
3 3 5 3 2 8 6 7 7 4 5 13 9 6 5 3 8 15 21 24 24 23 23 24 26 26 26 26 25 24 23 23 22 23 25 25 25 25 24 26 24 23 22 20
8 8 4 3 3 9 15 7 8 5 8 8 7 7 7 12 17 20 24 26 23 20 20 24 27 30 31 32 31 29 27 27 27 27 27 28 28 29 29 29 28 26 25 25
3 7 7 10 7 4 24 5 11 7 5 7 6 8 12 15 19 22 26 23 22 21 23 25 28 30 29 27 27 30 30 30 29 29 30 28 29 29 28 29 28 28 26 25
3 8 4 4 4 12 15 13 11 10 9 7 8 11 14 17 20 19 19 18 18 17 19 21 22 22 22 21 21 21 24 27 30 31 31 31 30 31 30 28 28 28 27 26
4 13 7 3 3 7 14 19 14 13 8 8 11 12 15 15 14 14 15 14 14 14 16 18 20 21 21 21 20 20 20 22 26 29 31 32 33 33 33 32 30 29 27 26
11 7 6 7 18 9 8 22 19 15 11 11 13 13 12 11 10 11 10 10 12 14 15 16 17 19 20 20 20 21 22 24 27 29 29 29 30 31 32 34 35 30 30 29
Wind_Direction
39 68 82 22 42 105 140 180 268 267 303 343 169 283 290 315 309 319 163 130 77 360 346 339 344 349 349 350 349 349 353 356 340 304 293 292 289 271 265 251 242 241 246 241
31 83 244 211 69 90 54 358 336 296 336 335 351 293 324 21 6 2 150 143 303 337 344 354 358 2 3 0 360 356 360 353 342 317 301 312 307 282 316 261 250 246 238 238
106 156 53 44 21 39 29 24 6 275 323 323 347 337 338 46 68 79 110 189 24 8 0 3 10 17 18 17 13 8 4 354 345 319 302 297 291 284 292 295 263 262 240 235
87 48 67 52 51 88 33 348 327 324 25 315 50 283 308 338 344 298 279 304 37 15 5 11 20 27 30 30 27 23 12 4 352 347 325 315 306 292 282 293 302 287 255 238
176 104 69 57 15 2 245 292 285 265 92 1 3 66 274 329 319 330 329 296 340 352 355 8 24 31 35 35 32 34 34 34 25 20 21 8 2 2 343 317 320 296 268 263
100 85 96 148 45 49 304 334 41 48 75 28 247 111 283 301 325 336 335 268 256 303 334 343 5 20 28 31 31 31 32 35 37 39 40 32 31 26 26 28 59 26 12 291
43 6 45 85 83 10 51 40 352 354 5 217 249 3 246 298 5 311 301 272 236 254 299 310 296 328 3 17 25 28 28 30 32 32 36 38 40 33 25 21 23 28 65 89
143 320 168 37 75 144 64 116 142 242 271 270 279 235 243 5 339 350 2 350 255 269 274 290 287 290 326 350 6 16 24 26 25 24 26 28 30 31 32 35 19 1 17 23
139 186 68 65 49 93 172 74 156 106 66 25 244 310 320 149 20 25 7 347 301 278 274 274 269 268 301 332 353 7 18 20 19 16 11 13 17 20 25 24 24 20 9 341
200 106 78 323 127 31 111 149 64 9 13 305 275 240 234 354 319 17 10 7 3 344 295 264 265 269 274 306 333 349 5 8 6 3 1 3 5 8 9 11 15 16 16 16
143 103 212 60 191 170 36 33 58 118 149 189 286 258 210 111 46 1 360 348 338 337 343 286 257 264 270 311 324 329 328 331 340 343 338 337 344 352 355 359 2 7 11 11
122 124 154 166 332 339 178 178 143 132 252 222 176 268 306 100 75 11 344 342 338 339 343 322 249 255 277 306 283 300 303 299 305 310 315 320 328 337 346 354 358 1 1 3
178 5 42 348 355 350 214 188 126 104 74 211 150 265 138 349 348 338 336 336 333 334 333 327 254 250 274 261 265 312 324 323 331 333 329 320 318 320 326 338 350 354 359 3
118 111 161 190 183 147 177 192 153 122 124 249 235 282 300 321 323 328 334 336 337 341 337 334 252 200 239 288 316 330 327 327 336 330 328 330 328 322 317 319 331 345 353 357
110 180 142 263 177 177 215 204 229 184 197 196 277 229 284 278 294 328 334 350 354 355 3 18 1 334 329 338 345 337 324 324 339 333 330 325 326 326 318 313 309 323 338 345
22 159 102 322 16 90 262 235 238 234 204 244 257 273 19 6 39 33 19 9 12 24 29 19 5 347 339 340 341 345 341 348 356 350 343 335 325 322 325 314 308 300 310 327
122 134 99 263 351 351 314 228 206 198 212 165 193 228 324 21 82 52 42 40 35 22 14 9 355 341 336 332 331 328 329 332 332 334 335 334 332 329 327 323 309 295 283 293
131 103 81 197 18 330 254 275 145 210 234 203 130 175 190 350 173 71 44 20 5 352 342 343 338 334 332 328 321 319 320 320 317 317 319 320 320 321 322 323 318 306 285 274
50 119 80 136 183 302 278 193 152 177 264 186 180 189 232 319 307 234 322 342 340 332 326 323 316 311 308 305 304 305 305 305 304 301 304 308 309 309 310 312 315 313 304 278
59 63 109 89 147 221 227 154 90 87 276 181 189 209 285 330 273 258 296 312 313 315 319 314 305 302 299 296 295 294 291 287 287 288 293 297 300 300 301 302 303 305 304 296
91 26 157 160 205 289 226 156 128 102 242 173 198 228 265 241 260 291 301 304 311 313 312 304 301 300 300 300 299 297 295 292 287 286 287 288 291 293 294 294 295 294 292 291
160 147 178 94 107 269 161 121 168 173 149 195 222 259 282 292 297 304 308 313 311 308 300 295 296 296 297 299 299 296 295 294 294 292 289 288 289 291 293 291 288 286 284 281
193 179 176 184 205 155 176 200 199 201 210 227 252 287 307 304 306 308 308 310 311 306 304 306 308 309 309 308 304 294 292 294 293 293 293 291 289 290 289 289 287 284 281 278
256 168 154 113 206 186 191 206 214 231 240 254 286 300 304 300 303 303 304 308 312 319 324 326 328 331 333 329 321 312 301 296 294 292 291 290 287 286 286 284 282 281 280 279
181 151 157 264 126 145 206 214 217 224 235 271 287 295 295 293 297 300 307 312 318 326 329 332 333 334 338 336 335 331 320 308 301 297 295 293 291 287 284 282 280 276 271 272
193 166 173 211 191 180 193 208 211 216 244 267 286 294 291 289 293 299 308 314 320 326 331 335 337 336 340 341 342 334 328 320 314 309 305 302 298 293 289 284 279 272 269 263